Location: Castellare
(42.4669°N, 9.4728°E)
Time: 04:55:35
(UTC+00:00)

Cosmos 292 Rocket - Pass Details

Date: 17 February 2020
Orbit: 674 x 694 km, 74.0° (Epoch: 02 April)

Event Time Altitude Azimuth Distance (km) Brightness Sun altitude
Exits shadow 04:43:30 29° 304° (NW) 1,243 4.6 -17.9°
Maximum altitude 04:45:18 41° 257° (WSW) 979 4.1 -17.5°
Drops below altitude 10° 04:49:44 10° 188° (S) 2,100 6.2 -16.7°
Sets 04:52:06 0° 181° (S) 3,011 7.1 -16.3°
